Charlottesville, VA

3:45 AM EST on January 19, 2017 (GMT -0500)
Charlottesville-Albemarle

Weather History for KCHO - October, 2010

Change the Weather History Date:

Friday, October 15, 2010

  Actual Average Record
Temperature  
Mean Temperature 54 °F 56 °F  
Max Temperature 62 °F 68 °F 87 °F (1941)
Min Temperature 45 °F 44 °F 29 °F (2006)
Degree Days  
Heating Degree Days 11 9  
Month to date heating degree days 70 108  
Since 1 July heating degree days 78 166  
Cooling Degree Days 0 0  
Month to date cooling degree days 17 12  
Year to date cooling degree days 1705 1033  
Growing Degree Days 2 (Base 50)    
Moisture  
Dew Point 38 °F    
Average Humidity 59    
Maximum Humidity 76    
Minimum Humidity 42    
Precipitation  
Precipitation T in 0.09 in 1.77 in (2014)
Month to date precipitation 0.52 1.61  
Year to date precipitation 28.46 34.23  
Sea Level Pressure  
Sea Level Pressure 29.80 in    
Wind  
Wind Speed 6 mph (West)    
Max Wind Speed 16 mph    
Max Gust Speed 31 mph    
Visibility 10 miles    
Events Rain    
T = Trace of Precipitation, MM = Missing Value Source: NWS Daily Summary

Daily Weather History Graph

Daily Weather History Graph

Search for Another Location

Airport or City:

Trip Planner

Search our weather history database for the weather conditions in past years. The results will help you decide how hot, cold, wet, or windy it might be!

Date:

Astronomy

Oct. 15, 2010 Rise Set
Actual Time 7:22 AM EDT 6:36 PM EDT
Civil Twilight 6:55 AM EDT 7:02 PM EDT
Nautical Twilight 6:25 AM EDT 7:33 PM EDT
Astronomical Twilight 5:54 AM EDT 8:03 PM EDT
Moon 2:51 PM EDT (10/15) 12:20 AM EDT (10/15)
Length of Visible Light 12h 06m
Length of Day
11h 13m
First Quarter, 57% of the Moon is Illuminated
Oct 15
First Quarter
Oct 22
Full
Oct 30
Last Quarter
Nov 6
New
Nov 13
First Quarter

Hourly Weather History & Observations

Time (EDT) Temp. Windchill Dew Point Humidity Pressure Visibility Wind Dir Wind Speed Gust Speed Precip Events Conditions
12:53 AM 52.0 °F - 39.0 °F 61% 29.83 in 10.0 mi Calm Calm - N/A   Clear
1:53 AM 51.1 °F - 37.0 °F 59% 29.83 in 10.0 mi Calm Calm - N/A   Clear
2:53 AM 51.1 °F - 36.0 °F 56% 29.81 in 10.0 mi Calm Calm - N/A   Clear
3:53 AM 46.0 °F - 39.0 °F 76% 29.80 in 10.0 mi Calm Calm - N/A   Clear
4:53 AM 46.0 °F - 37.0 °F 71% 29.80 in 10.0 mi Calm Calm - N/A   Scattered Clouds
5:53 AM 46.9 °F - 36.0 °F 66% 29.80 in 10.0 mi WSW 11.5 mph - N/A   Partly Cloudy
6:53 AM 45.0 °F 39.3 °F 36.0 °F 71% 29.78 in 10.0 mi WSW 11.5 mph - N/A   Clear
7:53 AM 46.9 °F - 35.1 °F 63% 29.79 in 10.0 mi West 11.5 mph - N/A   Clear
8:53 AM 51.1 °F - 36.0 °F 56% 29.78 in 10.0 mi West 11.5 mph - N/A   Clear
9:53 AM 57.9 °F - 39.9 °F 51% 29.76 in 10.0 mi West 4.6 mph - N/A   Clear
10:53 AM 59.0 °F - 37.9 °F 46% 29.75 in 10.0 mi West 11.5 mph - N/A   Clear
11:53 AM 57.9 °F - 37.9 °F 47% 29.74 in 10.0 mi West 11.5 mph - N/A   Overcast
1:53 PM 59.0 °F - 43.0 °F 55% 29.72 in 10.0 mi Variable 3.5 mph - 0.00 in Rain Light Rain
2:53 PM 60.1 °F - 39.9 °F 47% 29.72 in 10.0 mi Variable 6.9 mph - N/A   Overcast
3:53 PM 60.1 °F - 37.9 °F 44% 29.74 in 10.0 mi West 11.5 mph - 0.00 in Rain Light Rain
4:53 PM 59.0 °F - 37.0 °F 44% 29.75 in 10.0 mi WNW 4.6 mph - 0.00 in   Scattered Clouds
5:53 PM 60.1 °F - 37.0 °F 42% 29.78 in 10.0 mi WNW 10.4 mph 18.4 mph N/A   Mostly Cloudy
6:53 PM 55.9 °F - 39.9 °F 55% 29.84 in 10.0 mi Calm Calm - N/A   Mostly Cloudy
7:53 PM 54.0 °F - 39.9 °F 59% 29.87 in 10.0 mi WNW 3.5 mph - N/A   Clear
8:53 PM 55.0 °F - 37.9 °F 53% 29.86 in 10.0 mi Variable 5.8 mph - N/A   Clear
9:53 PM 54.0 °F - 36.0 °F 51% 29.88 in 10.0 mi Variable 6.9 mph - N/A   Clear
10:53 PM 53.1 °F - 36.0 °F 52% 29.91 in 10.0 mi WNW 9.2 mph - N/A   Clear
11:53 PM 52.0 °F - 36.0 °F 54% 29.92 in 10.0 mi Calm Calm - N/A   Clear